Time,TemperatureF,DewpointF,PressureIn,WindDirection,WindDirectionDegrees,WindSpeedMPH,WindSpeedGustMPH,Humidity,HourlyPrecipIn,Conditions,Clouds,dailyrainin,SoftwareType,DateUTC
2013-02-13 01:05:00,69.9,-99.9,29.88,SSW,203,7.0,-999.0,0,-99.99,,,0.00,weatherlink.com 1.10,2013-02-13 06:05:00,
2013-02-13 01:35:00,69.4,-99.9,29.88,SSW,210,3.0,-999.0,0,-99.99,,,0.00,weatherlink.com 1.10,2013-02-13 06:35:00,
2013-02-13 01:50:00,68.9,-99.9,29.87,SSW,208,2.0,-999.0,0,-99.99,,,0.00,weatherlink.com 1.10,2013-02-13 06:50:00,
2013-02-13 02:05:00,68.8,-99.9,29.87,SW,214,3.0,-999.0,0,-99.99,,,0.00,weatherlink.com 1.10,2013-02-13 07:05:00,
2013-02-13 02:50:00,68.8,-99.9,29.87,SW,222,3.0,-999.0,0,-99.99,,,0.00,weatherlink.com 1.10,2013-02-13 07:50:00,
2013-02-13 03:05:00,68.6,-99.9,29.87,SSW,196,4.0,-999.0,0,-99.99,,,0.00,weatherlink.com 1.10,2013-02-13 08:05:00,
2013-02-13 03:20:00,68.4,-99.9,29.87,SSW,203,3.0,-999.0,0,-99.99,,,0.00,weatherlink.com 1.10,2013-02-13 08:20:00,
2013-02-13 03:36:00,68.4,-99.9,29.86,SW,224,3.0,-999.0,0,-99.99,,,0.00,weatherlink.com 1.10,2013-02-13 08:36:00,
2013-02-13 03:51:00,68.4,-99.9,29.86,SW,216,2.0,-999.0,0,-99.99,,,0.00,weatherlink.com 1.10,2013-02-13 08:51:00,
2013-02-13 04:05:00,68.1,-99.9,29.86,WSW,238,2.0,-999.0,0,-99.99,,,0.00,weatherlink.com 1.10,2013-02-13 09:05:00,
2013-02-13 04:20:00,68.3,-99.9,29.85,SSW,200,7.0,-999.0,0,-99.99,,,0.00,weatherlink.com 1.10,2013-02-13 09:20:00,
2013-02-13 04:51:00,68.6,-99.9,29.85,SSW,207,10.0,-999.0,0,-99.99,,,0.00,weatherlink.com 1.10,2013-02-13 09:51:00,
2013-02-13 05:06:00,68.8,-99.9,29.85,SSW,207,4.0,-999.0,0,-99.99,,,0.00,weatherlink.com 1.10,2013-02-13 10:06:00,
2013-02-13 05:21:00,68.8,-99.9,29.85,SW,223,5.0,-999.0,0,-99.99,,,0.00,weatherlink.com 1.10,2013-02-13 10:21:00,
2013-02-13 05:36:00,69.1,-99.9,29.85,SW,229,7.0,-999.0,0,-99.99,,,0.00,weatherlink.com 1.10,2013-02-13 10:36:00,
2013-02-13 05:51:00,69.3,-99.9,29.85,SW,226,11.0,-999.0,0,-99.99,,,0.00,weatherlink.com 1.10,2013-02-13 10:51:00,
2013-02-13 06:06:00,69.4,-99.9,29.85,SW,225,5.0,-999.0,0,-99.99,,,0.00,weatherlink.com 1.10,2013-02-13 11:06:00,
2013-02-13 06:22:00,69.6,-99.9,29.86,SW,214,4.0,-999.0,0,-99.99,,,0.00,weatherlink.com 1.10,2013-02-13 11:22:00,
2013-02-13 06:37:00,69.8,-99.9,29.86,SW,236,6.0,-999.0,0,-99.99,,,0.00,weatherlink.com 1.10,2013-02-13 11:37:00,
2013-02-13 07:07:00,69.9,-99.9,29.86,SW,226,4.0,-999.0,0,-99.99,,,0.00,weatherlink.com 1.10,2013-02-13 12:07:00,
2013-02-13 07:22:00,70.1,-99.9,29.86,SW,225,9.0,-999.0,0,-99.99,,,0.00,weatherlink.com 1.10,2013-02-13 12:22:00,
2013-02-13 07:37:00,70.1,-99.9,29.87,SW,224,7.0,-999.0,0,-99.99,,,0.00,weatherlink.com 1.10,2013-02-13 12:37:00,
2013-02-13 07:52:00,70.3,-99.9,29.87,SW,230,9.0,-999.0,0,-99.99,,,0.00,weatherlink.com 1.10,2013-02-13 12:52:00,
2013-02-13 08:07:00,70.4,-99.9,29.88,SW,230,4.0,-999.0,0,-99.99,,,0.00,weatherlink.com 1.10,2013-02-13 13:07:00,
2013-02-13 08:22:00,70.8,-99.9,29.88,SSW,206,5.0,-999.0,0,-99.99,,,0.00,weatherlink.com 1.10,2013-02-13 13:22:00,
2013-02-13 08:37:00,71.1,-99.9,29.88,WSW,239,7.0,-999.0,0,-99.99,,,0.00,weatherlink.com 1.10,2013-02-13 13:37:00,
2013-02-13 08:52:00,71.6,-99.9,29.88,South,189,11.0,-999.0,0,-99.99,,,0.00,weatherlink.com 1.10,2013-02-13 13:52:00,
2013-02-13 09:07:00,72.0,-99.9,29.88,SW,215,8.0,-999.0,0,-99.99,,,0.00,weatherlink.com 1.10,2013-02-13 14:07:00,
2013-02-13 09:22:00,72.5,-99.9,29.88,SW,217,6.0,-999.0,0,-99.99,,,0.00,weatherlink.com 1.10,2013-02-13 14:22:00,
2013-02-13 09:37:00,73.2,-99.9,29.88,SW,215,9.0,-999.0,0,-99.99,,,0.00,weatherlink.com 1.10,2013-02-13 14:37:00,
2013-02-13 09:52:00,74.0,-99.9,29.89,SW,229,6.0,-999.0,0,-99.99,,,0.00,weatherlink.com 1.10,2013-02-13 14:52:00,
2013-02-13 10:07:00,73.7,-99.9,29.89,SW,226,9.0,-999.0,0,-99.99,,,0.00,weatherlink.com 1.10,2013-02-13 15:07:00,
2013-02-13 10:22:00,74.6,-99.9,29.89,SW,223,8.0,-999.0,0,-99.99,,,0.00,weatherlink.com 1.10,2013-02-13 15:22:00,
2013-02-13 10:38:00,75.3,-99.9,29.88,SW,236,9.0,-999.0,0,-99.99,,,0.00,weatherlink.com 1.10,2013-02-13 15:38:00,
2013-02-13 10:53:00,76.1,-99.9,29.88,SW,218,9.0,-999.0,0,-99.99,,,0.00,weatherlink.com 1.10,2013-02-13 15:53:00,
2013-02-13 11:08:00,77.0,-99.9,29.88,SW,215,7.0,-999.0,0,-99.99,,,0.00,weatherlink.com 1.10,2013-02-13 16:08:00,
2013-02-13 11:23:00,77.6,-99.9,29.88,SW,226,6.0,-999.0,0,-99.99,,,0.00,weatherlink.com 1.10,2013-02-13 16:23:00,
2013-02-13 11:38:00,78.1,-99.9,29.87,SW,219,9.0,-999.0,0,-99.99,,,0.00,weatherlink.com 1.10,2013-02-13 16:38:00,
2013-02-13 11:53:00,78.8,-99.9,29.86,SW,224,5.0,-999.0,0,-99.99,,,0.00,weatherlink.com 1.10,2013-02-13 16:53:00,
2013-02-13 12:08:00,77.9,-99.9,29.85,SW,231,7.0,-999.0,0,-99.99,,,0.00,weatherlink.com 1.10,2013-02-13 17:08:00,
2013-02-13 12:23:00,78.3,-99.9,29.85,SW,234,11.0,-999.0,0,-99.99,,,0.00,weatherlink.com 1.10,2013-02-13 17:23:00,
2013-02-13 12:38:00,79.9,-99.9,29.84,SW,226,7.0,-999.0,0,-99.99,,,0.00,weatherlink.com 1.10,2013-02-13 17:38:00,
2013-02-13 12:53:00,79.6,-99.9,29.83,SW,221,5.0,-999.0,0,-99.99,,,0.00,weatherlink.com 1.10,2013-02-13 17:53:00,
2013-02-13 13:09:00,80.7,-99.9,29.82,SW,231,6.0,-999.0,0,-99.99,,,0.00,weatherlink.com 1.10,2013-02-13 18:09:00,
2013-02-13 13:24:00,81.1,-99.9,29.81,SW,218,11.0,-999.0,0,-99.99,,,0.00,weatherlink.com 1.10,2013-02-13 18:24:00,
2013-02-13 13:39:00,81.6,-1.0,29.80,SW,224,11.0,-999.0,4,-99.99,,,0.00,weatherlink.com 1.10,2013-02-13 18:39:00,
2013-02-13 13:54:00,81.8,-7.0,29.79,SW,231,6.0,-999.0,3,-99.99,,,0.00,weatherlink.com 1.10,2013-02-13 18:54:00,
2013-02-13 14:09:00,81.8,-1.0,29.79,SW,221,7.0,-999.0,4,-99.99,,,0.00,weatherlink.com 1.10,2013-02-13 19:09:00,
2013-02-13 14:24:00,82.4,5.0,29.78,SW,231,9.0,-999.0,5,-99.99,,,0.00,weatherlink.com 1.10,2013-02-13 19:24:00,
2013-02-13 14:39:00,82.4,0.0,29.77,WSW,238,8.0,-999.0,4,-99.99,,,0.00,weatherlink.com 1.10,2013-02-13 19:39:00,
2013-02-13 14:54:00,83.0,21.0,29.76,SW,221,7.0,-999.0,10,-99.99,,,0.00,weatherlink.com 1.10,2013-02-13 19:54:00,
2013-02-13 15:10:00,82.6,5.0,29.76,SW,220,5.0,-999.0,5,-99.99,,,0.00,weatherlink.com 1.10,2013-02-13 20:10:00,
2013-02-13 15:24:00,82.6,12.0,29.75,WSW,240,11.0,-999.0,7,-99.99,,,0.00,weatherlink.com 1.10,2013-02-13 20:24:00,
2013-02-13 15:39:00,83.4,26.0,29.75,SW,224,15.0,-999.0,12,-99.99,,,0.00,weatherlink.com 1.10,2013-02-13 20:39:00,
2013-02-13 16:10:00,83.0,16.0,29.75,WSW,238,13.0,-999.0,8,-99.99,,,0.00,weatherlink.com 1.10,2013-02-13 21:10:00,
2013-02-13 16:24:00,82.8,16.0,29.75,WSW,240,16.0,-999.0,8,-99.99,,,0.00,weatherlink.com 1.10,2013-02-13 21:24:00,
2013-02-13 16:39:00,82.6,9.0,29.75,WSW,238,13.0,-999.0,6,-99.99,,,0.00,weatherlink.com 1.10,2013-02-13 21:39:00,
2013-02-13 16:54:00,82.8,13.0,29.75,SW,233,9.0,-999.0,7,-99.99,,,0.00,weatherlink.com 1.10,2013-02-13 21:54:00,
2013-02-13 17:10:00,82.2,0.0,29.75,WSW,238,14.0,-999.0,4,-99.99,,,0.00,weatherlink.com 1.10,2013-02-13 22:10:00,
2013-02-13 17:25:00,82.2,-6.0,29.76,SW,233,8.0,-999.0,3,-99.99,,,0.00,weatherlink.com 1.10,2013-02-13 22:25:00,
2013-02-13 17:40:00,82.0,8.0,29.76,WSW,244,11.0,-999.0,6,-99.99,,,0.00,weatherlink.com 1.10,2013-02-13 22:40:00,
2013-02-13 17:55:00,81.1,-15.0,29.77,WSW,240,11.0,-999.0,2,-99.99,,,0.00,weatherlink.com 1.10,2013-02-13 22:55:00,
2013-02-13 18:10:00,80.9,-29.0,29.77,SW,233,9.0,-999.0,1,-99.99,,,0.00,weatherlink.com 1.10,2013-02-13 23:10:00,
2013-02-13 18:25:00,80.5,-99.9,29.77,WSW,238,11.0,-999.0,0,-99.99,,,0.00,weatherlink.com 1.10,2013-02-13 23:25:00,
2013-02-13 18:40:00,79.8,-99.9,29.77,SW,236,9.0,-999.0,-999,-99.99,,,0.00,weatherlink.com 1.10,2013-02-13 23:40:00,
2013-02-13 18:55:00,79.4,-99.9,29.78,WSW,240,10.0,-999.0,0,-99.99,,,0.00,weatherlink.com 1.10,2013-02-13 23:55:00,
2013-02-13 19:10:00,79.2,-99.9,29.78,WSW,245,10.0,-999.0,0,-99.99,,,0.00,weatherlink.com 1.10,2013-02-14 00:10:00,
2013-02-13 19:25:00,78.6,-99.9,29.79,WSW,239,12.0,-999.0,0,-99.99,,,0.00,weatherlink.com 1.10,2013-02-14 00:25:00,
2013-02-13 19:55:00,77.7,-99.9,29.80,WSW,245,7.0,-999.0,0,-99.99,,,0.00,weatherlink.com 1.10,2013-02-14 00:55:00,
2013-02-13 20:10:00,77.4,-99.9,29.80,WSW,243,9.0,-999.0,0,-99.99,,,0.00,weatherlink.com 1.10,2013-02-14 01:10:00,
2013-02-13 20:26:00,77.0,-99.9,29.81,WSW,243,9.0,-999.0,0,-99.99,,,0.00,weatherlink.com 1.10,2013-02-14 01:26:00,
2013-02-13 20:41:00,76.7,-99.9,29.82,WSW,240,10.0,-999.0,0,-99.99,,,0.00,weatherlink.com 1.10,2013-02-14 01:41:00,
2013-02-13 20:56:00,76.1,-99.9,29.82,SW,235,8.0,-999.0,0,-99.99,,,0.00,weatherlink.com 1.10,2013-02-14 01:56:00,
2013-02-13 21:11:00,75.8,-99.9,29.83,WSW,243,6.0,-999.0,0,-99.99,,,0.00,weatherlink.com 1.10,2013-02-14 02:11:00,
2013-02-13 21:26:00,75.8,-99.9,29.83,WSW,255,6.0,-999.0,0,-99.99,,,0.00,weatherlink.com 1.10,2013-02-14 02:26:00,
2013-02-13 21:41:00,70.1,-99.9,29.86,NNW,330,9.0,-999.0,0,-99.99,,,0.00,weatherlink.com 1.10,2013-02-14 02:41:00,
2013-02-13 21:56:00,67.9,-99.9,29.88,NW,312,6.0,-999.0,0,-99.99,,,0.00,weatherlink.com 1.10,2013-02-14 02:56:00,
2013-02-13 22:11:00,66.4,-99.9,29.88,NNW,330,7.0,-999.0,0,-99.99,,,0.00,weatherlink.com 1.10,2013-02-14 03:11:00,
2013-02-13 22:26:00,65.5,-99.9,29.88,WNW,293,2.0,-999.0,0,-99.99,,,0.00,weatherlink.com 1.10,2013-02-14 03:26:00,
2013-02-13 22:41:00,65.6,-99.9,29.88,NNW,335,0.0,-999.0,0,-99.99,,,0.00,weatherlink.com 1.10,2013-02-14 03:41:00,
2013-02-13 22:56:00,65.6,-99.9,29.89,North,0,2.0,-999.0,0,-99.99,,,0.00,weatherlink.com 1.10,2013-02-14 03:56:00,
2013-02-13 23:12:00,65.8,-99.9,29.89,NNE,25,0.0,-999.0,0,-99.99,,,0.00,weatherlink.com 1.10,2013-02-14 04:12:00,
2013-02-13 23:41:00,66.8,-99.9,29.90,NW,312,5.0,-999.0,0,-99.99,,,0.00,weatherlink.com 1.10,2013-02-14 04:41:00,